RSC108 BGAA-BGSF

Flight info

Callsign RSC108
Flight time N/A
Altitude 20000
Route AA UW22 NYGAR UT587 LILGO DCT BELZI
Aircraft AT76/M-SDFGIRY/S

Departure

Time 2026-04-29 14:01
Airport Aasiaat Airport (BGAA)

Arrival

Time N/A
Airport Kangerlussuaq International Airport (BGSF)
Time Latitude Longitude Altitude Speed Heading
2026-04-29 13:33 68.72033 -52.79223 74 ft 0 kts 171°
2026-04-29 13:39 68.72023 -52.79324 70 ft 0 kts 192°
2026-04-29 13:54 68.72025 -52.79324 77 ft 2 kts 195°
2026-04-29 13:54 68.72032 -52.79319 64 ft 0 kts 258°
2026-04-29 13:54 68.72033 -52.79303 67 ft 2 kts 288°
2026-04-29 13:54 68.72040 -52.79309 70 ft 2 kts 329°
2026-04-29 13:55 68.72040 -52.79310 66 ft 0 kts 329°
2026-04-29 13:56 68.72063 -52.79333 66 ft 0 kts 350°
2026-04-29 13:57 68.72065 -52.79334 67 ft 2 kts 350°
2026-04-29 13:57 68.72071 -52.79337 68 ft 0 kts 350°
2026-04-29 13:58 68.72098 -52.79346 70 ft 8 kts
2026-04-29 13:58 68.72138 -52.79173 73 ft 17 kts 85°
2026-04-29 13:59 68.72161 -52.78788 69 ft 23 kts 82°
2026-04-29 13:59 68.72199 -52.78328 69 ft 26 kts 77°
2026-04-29 13:59 68.72238 -52.77811 74 ft 30 kts 79°
2026-04-29 13:59 68.72254 -52.77568 73 ft 2 kts 31°
2026-04-29 14:00 68.72260 -52.77612 63 ft 8 kts 257°
2026-04-29 14:00 68.72250 -52.77662 73 ft 0 kts 257°
2026-04-29 14:00 68.72244 -52.77736 70 ft 24 kts 258°
2026-04-29 14:00 68.72164 -52.78806 69 ft 89 kts 257°
2026-04-29 14:01 68.71953 -52.80849 255 ft 120 kts 239°
2026-04-29 14:01 68.71451 -52.82691 853 ft 120 kts 215°
2026-04-29 14:01 68.70702 -52.82996 1532 ft 119 kts 145°
2026-04-29 14:01 68.70167 -52.81065 2002 ft 134 kts 123°
2026-04-29 14:02 68.69664 -52.78688 2198 ft 152 kts 118°
2026-04-29 14:02 68.69021 -52.76249 2459 ft 162 kts 129°
2026-04-29 14:02 68.68103 -52.74427 2767 ft 169 kts 165°
2026-04-29 14:02 68.66940 -52.73697 3148 ft 174 kts 167°
2026-04-29 14:03 68.65749 -52.73286 3436 ft 176 kts 171°
2026-04-29 14:03 68.64552 -52.72241 3706 ft 185 kts 159°
2026-04-29 14:03 68.63331 -52.70931 4068 ft 191 kts 160°
2026-04-29 14:03 68.62071 -52.69647 4522 ft 195 kts 161°
2026-04-29 14:04 68.60786 -52.68402 4879 ft 198 kts 162°
2026-04-29 14:04 68.59480 -52.67157 5256 ft 199 kts 161°
2026-04-29 14:04 68.58171 -52.65872 5635 ft 200 kts 161°
2026-04-29 14:04 68.56881 -52.64583 6002 ft 200 kts 161°
2026-04-29 14:05 68.55571 -52.63270 6451 ft 201 kts 161°
2026-04-29 14:05 68.54259 -52.61954 6859 ft 201 kts 160°
2026-04-29 14:05 68.52947 -52.60634 7248 ft 201 kts 161°
2026-04-29 14:05 68.51628 -52.59307 7646 ft 202 kts 160°
2026-04-29 14:06 68.50305 -52.57981 8062 ft 203 kts 160°
2026-04-29 14:06 68.48974 -52.56654 8464 ft 204 kts 160°
2026-04-29 14:06 68.47640 -52.55318 8858 ft 204 kts 161°
2026-04-29 14:06 68.46319 -52.54002 9235 ft 205 kts 160°
2026-04-29 14:07 68.44977 -52.52667 9675 ft 206 kts 161°
2026-04-29 14:07 68.43632 -52.51328 10053 ft 206 kts 160°
2026-04-29 14:07 68.42282 -52.49985 10402 ft 207 kts 160°
2026-04-29 14:07 68.40929 -52.48642 10740 ft 207 kts 161°
2026-04-29 14:08 68.39572 -52.47297 11034 ft 211 kts 160°
2026-04-29 14:08 68.38155 -52.45896 11106 ft 223 kts 160°
2026-04-29 14:08 68.36652 -52.44411 11133 ft 236 kts 160°
2026-04-29 14:08 68.35076 -52.42856 11146 ft 246 kts 160°
2026-04-29 14:09 68.33444 -52.41246 11155 ft 253 kts 160°
2026-04-29 14:09 68.31766 -52.39593 11159 ft 259 kts 160°
2026-04-29 14:09 68.30072 -52.37928 11158 ft 264 kts 160°
2026-04-29 14:09 68.28329 -52.36219 11153 ft 268 kts 160°
2026-04-29 14:10 68.26569 -52.34492 11152 ft 271 kts 160°
2026-04-29 14:10 68.24792 -52.32761 11155 ft 272 kts 160°
2026-04-29 14:10 68.23004 -52.30983 11155 ft 274 kts 159°
2026-04-29 14:10 68.21235 -52.29018 11150 ft 275 kts 157°
2026-04-29 14:11 68.19476 -52.26954 11144 ft 276 kts 156°
2026-04-29 14:11 68.17710 -52.24905 11172 ft 277 kts 157°
2026-04-29 14:11 68.15931 -52.22880 11147 ft 278 kts 157°
2026-04-29 14:11 68.14178 -52.20883 11155 ft 277 kts 157°
2026-04-29 14:12 68.12400 -52.18868 11164 ft 277 kts 157°
2026-04-29 14:12 68.10596 -52.16820 11161 ft 279 kts 157°
2026-04-29 14:12 68.08837 -52.14823 11141 ft 278 kts 157°
2026-04-29 14:12 68.07052 -52.12809 11152 ft 278 kts 157°
2026-04-29 14:13 68.05272 -52.10790 11156 ft 278 kts 157°
2026-04-29 14:13 68.03492 -52.08788 11157 ft 278 kts 157°
2026-04-29 14:13 68.01706 -52.06776 11154 ft 278 kts 157°
2026-04-29 14:13 67.99915 -52.04764 11142 ft 279 kts 158°
2026-04-29 14:14 67.98130 -52.02755 11154 ft 278 kts 157°
2026-04-29 14:14 67.96365 -52.00785 11155 ft 278 kts 158°
2026-04-29 14:14 67.94582 -51.98784 11155 ft 278 kts 157°
2026-04-29 14:14 67.92799 -51.96798 11155 ft 278 kts 158°
2026-04-29 14:15 67.91013 -51.94804 11156 ft 278 kts 157°
2026-04-29 14:15 67.89225 -51.92815 11151 ft 278 kts 158°
2026-04-29 14:15 67.87441 -51.90837 11157 ft 278 kts 157°
2026-04-29 14:15 67.85660 -51.88858 11152 ft 278 kts 158°
2026-04-29 14:16 67.83872 -51.86883 11144 ft 278 kts 158°
2026-04-29 14:16 67.82087 -51.84908 11147 ft 278 kts 158°
2026-04-29 14:16 67.80299 -51.82953 11147 ft 278 kts 158°
2026-04-29 14:16 67.78537 -51.81002 11140 ft 277 kts 157°
2026-04-29 14:17 67.76758 -51.79034 11148 ft 277 kts 158°
2026-04-29 14:17 67.74976 -51.77085 11148 ft 277 kts 158°
2026-04-29 14:17 67.73192 -51.75134 11154 ft 278 kts 158°
2026-04-29 14:17 67.71404 -51.73178 11146 ft 278 kts 158°
2026-04-29 14:18 67.69611 -51.71217 11151 ft 278 kts 158°
2026-04-29 14:18 67.67821 -51.69271 11139 ft 278 kts 158°
2026-04-29 14:18 67.66039 -51.67325 11139 ft 277 kts 158°
2026-04-29 14:18 67.64256 -51.65391 11146 ft 277 kts 158°
2026-04-29 14:19 67.62475 -51.63461 11155 ft 277 kts 158°
2026-04-29 14:19 67.60689 -51.61529 11158 ft 278 kts 158°
2026-04-29 14:19 67.58899 -51.59591 11141 ft 278 kts 158°
2026-04-29 14:19 67.57108 -51.57663 11153 ft 279 kts 158°
2026-04-29 14:20 67.55339 -51.55753 11150 ft 279 kts 158°
2026-04-29 14:20 67.53541 -51.53820 11146 ft 279 kts 158°
2026-04-29 14:20 67.51749 -51.51886 11149 ft 279 kts 158°
2026-04-29 14:20 67.49952 -51.49960 11149 ft 279 kts 158°
2026-04-29 14:21 67.48154 -51.48043 11148 ft 280 kts 158°
2026-04-29 14:21 67.46351 -51.46115 11127 ft 280 kts 158°
2026-04-29 14:21 67.44550 -51.44198 11144 ft 279 kts 158°
2026-04-29 14:21 67.42711 -51.42740 11137 ft 276 kts 172°
2026-04-29 14:22 67.40788 -51.42415 11146 ft 277 kts 180°
2026-04-29 14:22 67.38854 -51.42376 11128 ft 277 kts 180°
2026-04-29 14:22 67.36928 -51.42297 11138 ft 277 kts 179°
2026-04-29 14:22 67.35003 -51.42086 11150 ft 277 kts 178°
2026-04-29 14:23 67.33077 -51.41808 11148 ft 277 kts 178°
2026-04-29 14:23 67.31149 -51.41547 11140 ft 277 kts 178°
2026-04-29 14:23 67.29225 -51.41285 11139 ft 277 kts 178°
2026-04-29 14:23 67.27304 -51.41035 11134 ft 276 kts 178°
2026-04-29 14:24 67.25384 -51.40777 11141 ft 276 kts 178°
2026-04-29 14:24 67.23467 -51.40521 11141 ft 276 kts 178°
2026-04-29 14:24 67.21571 -51.40273 11143 ft 276 kts 178°
2026-04-29 14:24 67.19636 -51.40020 10876 ft 285 kts 178°
2026-04-29 14:25 67.18244 -51.39835 10531 ft 0 kts 178°